• In Czech Republic
  • List of Countries
  • For 7 days
  • Water Temperature
  • Satellite Maps
  • Weather Map
  • Weather Widgets
  • user-avatar
    Login

    Hourly Weather Scarborough

    Today, 19 November, Sunday

    Time Temperature Precipitation Wind Pressure Humidity
    00:00 -1°C° 0 mm 7 mps 760 mmHg 75%
    01:00 -1°C° 0 mm 8 mps 760 mmHg 76%
    02:00 -1°C° 0 mm 8 mps 760 mmHg 77%
    03:00 -1°C° 0 mm 8 mps 760 mmHg 77%
    04:00 -1°C° 0 mm 8 mps 761 mmHg 79%
    05:00 -1°C° 0 mm 7 mps 761 mmHg 81%
    06:00 -2°C° 0 mm 7 mps 761 mmHg 81%
    07:00 -1°C° 0 mm 7 mps 761 mmHg 81%
    08:00 -1°C° 0 mm 7 mps 762 mmHg 80%
    09:00 -1°C° 0 mm 7 mps 762 mmHg 80%
    10:00 +1°C° 0 mm 6 mps 762 mmHg 75%
    11:00 +3°C° 0 mm 6 mps 762 mmHg 71%
    12:00 +4°C° 0 mm 6 mps 762 mmHg 66%
    13:00 +3°C° 0 mm 5 mps 762 mmHg 68%
    14:00 +3°C° 0 mm 5 mps 762 mmHg 69%
    15:00 +4°C° 0 mm 4 mps 762 mmHg 71%
    16:00 +3°C° 0 mm 4 mps 762 mmHg 74%
    17:00 +3°C° 0 mm 4 mps 762 mmHg 76%
    18:00 +2°C° 0 mm 3 mps 762 mmHg 78%
    19:00 +2°C° 0 mm 3 mps 761 mmHg 79%
    20:00 +2°C° 0 mm 3 mps 761 mmHg 79%
    21:00 +3°C° 0 mm 3 mps 761 mmHg 79%
    22:00 +3°C° 0.1 mm 4 mps 760 mmHg 81%
    23:00 +3°C° 0.1 mm 4 mps 760 mmHg 83%

    Tomorrow, 20 November, Monday

    Time Temperature Precipitation Wind Pressure Humidity
    00:00 +3°C° 0.1 mm 4 mps 759 mmHg 85%
    01:00 +3°C° 1.1 mm 5 mps 758 mmHg 87%
    02:00 +4°C° 1.1 mm 6 mps 757 mmHg 90%
    03:00 +4°C° 1.1 mm 7 mps 756 mmHg 93%
    04:00 +5°C° 0.6 mm 8 mps 755 mmHg 93%
    05:00 +6°C° 0.6 mm 8 mps 754 mmHg 93%
    06:00 +7°C° 0.6 mm 9 mps 753 mmHg 93%
    07:00 +8°C° 0.2 mm 9 mps 752 mmHg 92%
    08:00 +9°C° 0.2 mm 8 mps 752 mmHg 92%
    09:00 +10°C° 0.2 mm 8 mps 751 mmHg 92%
    10:00 +10°C° 0.1 mm 8 mps 751 mmHg 90%
    11:00 +11°C° 0.1 mm 8 mps 751 mmHg 88%
    12:00 +11°C° 0.1 mm 8 mps 751 mmHg 87%
    13:00 +11°C° 0.4 mm 8 mps 750 mmHg 86%
    14:00 +11°C° 0.4 mm 8 mps 750 mmHg 85%
    15:00 +11°C° 0.4 mm 8 mps 750 mmHg 84%
    16:00 +11°C° 0.2 mm 7 mps 751 mmHg 85%
    17:00 +11°C° 0.2 mm 7 mps 751 mmHg 86%
    18:00 +10°C° 0.2 mm 7 mps 751 mmHg 87%
    19:00 +10°C° 0 mm 6 mps 752 mmHg 89%
    20:00 +9°C° 0 mm 5 mps 752 mmHg 91%
    21:00 +8°C° 0 mm 5 mps 752 mmHg 93%
    22:00 +8°C° 0 mm 4 mps 753 mmHg 93%
    23:00 +9°C° 0 mm 3 mps 753 mmHg 94%

    Day after tomorrow, 21 November, Tuesday

    Time Temperature Precipitation Wind Pressure Humidity
    00:00 +9°C° 0 mm 2 mps 753 mmHg 94%
    01:00 +9°C° 0.2 mm 2 mps 753 mmHg 95%
    02:00 +9°C° 0.2 mm 2 mps 753 mmHg 95%
    03:00 +9°C° 0.2 mm 2 mps 753 mmHg 96%
    04:00 +9°C° 0.2 mm 3 mps 753 mmHg 96%
    05:00 +8°C° 0.2 mm 4 mps 752 mmHg 96%
    06:00 +9°C° 0.2 mm 5 mps 752 mmHg 96%
    07:00 +9°C° 0.2 mm 5 mps 752 mmHg 95%
    08:00 +10°C° 0.2 mm 6 mps 751 mmHg 95%
    09:00 +10°C° 0.2 mm 6 mps 751 mmHg 95%
    10:00 +11°C° 0 mm 7 mps 750 mmHg 91%
    11:00 +11°C° 0 mm 7 mps 750 mmHg 88%
    12:00 +12°C° 0 mm 7 mps 749 mmHg 84%
    13:00 +12°C° 0 mm 7 mps 749 mmHg 83%
    14:00 +11°C° 0 mm 8 mps 748 mmHg 81%
    15:00 +11°C° 0 mm 8 mps 748 mmHg 80%
    16:00 +11°C° 0.1 mm 8 mps 747 mmHg 81%
    17:00 +11°C° 0.1 mm 9 mps 746 mmHg 83%
    18:00 +11°C° 0.1 mm 9 mps 746 mmHg 85%
    19:00 +11°C° 0.2 mm 9 mps 745 mmHg 85%
    20:00 +12°C° 0.2 mm 10 mps 745 mmHg 86%
    21:00 +12°C° 0.2 mm 10 mps 744 mmHg 86%
    22:00 +12°C° 0.1 mm 10 mps 744 mmHg 86%
    23:00 +12°C° 0.1 mm 10 mps 744 mmHg 86%

    22 November, Wednesday

    Time Temperature Precipitation Wind Pressure Humidity
    00:00 +12°C° 0.1 mm 9 mps 743 mmHg 86%
    01:00 +13°C° 0.2 mm 9 mps 743 mmHg 86%
    02:00 +13°C° 0.2 mm 9 mps 743 mmHg 85%
    03:00 +13°C° 0.2 mm 10 mps 743 mmHg 85%
    04:00 +13°C° 0.1 mm 9 mps 743 mmHg 84%
    05:00 +13°C° 0.1 mm 9 mps 743 mmHg 83%
    06:00 +13°C° 0.1 mm 9 mps 743 mmHg 82%
    07:00 +12°C° 0 mm 9 mps 743 mmHg 82%
    08:00 +12°C° 0 mm 9 mps 743 mmHg 82%
    09:00 +12°C° 0 mm 10 mps 742 mmHg 82%
    10:00 +12°C° 0.1 mm 10 mps 742 mmHg 80%
    11:00 +13°C° 0.1 mm 11 mps 742 mmHg 78%
    12:00 +13°C° 0.1 mm 12 mps 741 mmHg 76%
    13:00 +13°C° 0 mm 12 mps 740 mmHg 76%
    14:00 +13°C° 0 mm 12 mps 740 mmHg 77%
    15:00 +13°C° 0 mm 12 mps 739 mmHg 77%
    16:00 +13°C° 0.2 mm 12 mps 738 mmHg 78%
    17:00 +13°C° 0.2 mm 13 mps 737 mmHg 78%
    18:00 +13°C° 0.2 mm 13 mps 737 mmHg 78%
    19:00 +13°C° 0.2 mm 13 mps 737 mmHg 78%
    20:00 +13°C° 0.2 mm 12 mps 737 mmHg 77%
    21:00 +12°C° 0.2 mm 11 mps 737 mmHg 77%
    22:00 +12°C° 0 mm 11 mps 737 mmHg 77%
    23:00 +12°C° 0 mm 11 mps 737 mmHg 76%

    23 November, Thursday

    Time Temperature Precipitation Wind Pressure Humidity
    00:00 +12°C° 0 mm 11 mps 738 mmHg 76%
    01:00 +12°C° 0 mm 11 mps 738 mmHg 77%
    02:00 +11°C° 0 mm 10 mps 739 mmHg 78%
    03:00 +11°C° 0 mm 10 mps 740 mmHg 79%
    04:00 +11°C° 0 mm 10 mps 741 mmHg 78%
    05:00 +10°C° 0 mm 9 mps 743 mmHg 77%
    06:00 +8°C° 0 mm 9 mps 744 mmHg 75%
    07:00 +9°C° 0 mm 8 mps 745 mmHg 76%
    08:00 +8°C° 0 mm 7 mps 746 mmHg 77%
    09:00 +8°C° 0 mm 6 mps 747 mmHg 78%
    10:00 +9°C° 0 mm 6 mps 747 mmHg 79%
    11:00 +10°C° 0 mm 7 mps 747 mmHg 80%
    12:00 +11°C° 0 mm 7 mps 747 mmHg 81%
    13:00 +12°C° 0 mm 8 mps 746 mmHg 80%
    14:00 +12°C° 0 mm 9 mps 746 mmHg 78%
    15:00 +13°C° 0 mm 10 mps 745 mmHg 77%
    16:00 +13°C° 0 mm 10 mps 745 mmHg 78%
    17:00 +13°C° 0 mm 10 mps 745 mmHg 79%
    18:00 +12°C° 0 mm 10 mps 745 mmHg 80%
    19:00 +12°C° 0 mm 10 mps 745 mmHg 82%
    20:00 +12°C° 0 mm 10 mps 745 mmHg 83%
    21:00 +12°C° 0 mm 10 mps 745 mmHg 84%
    22:00 +12°C° 0.4 mm 10 mps 745 mmHg 84%
    23:00 +12°C° 0.4 mm 10 mps 745 mmHg 85%

    24 November, Friday

    Time Temperature Precipitation Wind Pressure Humidity
    00:00 +12°C° 0.4 mm 10 mps 744 mmHg 85%
    01:00 +12°C° 0.2 mm 10 mps 744 mmHg 84%
    02:00 +12°C° 0.2 mm 10 mps 744 mmHg 84%
    03:00 +12°C° 0.2 mm 10 mps 744 mmHg 83%
    04:00 +12°C° 0 mm 10 mps 745 mmHg 83%
    05:00 +11°C° 0 mm 9 mps 745 mmHg 82%
    06:00 +11°C° 0 mm 9 mps 745 mmHg 82%
    07:00 +10°C° 0.2 mm 9 mps 746 mmHg 82%
    08:00 +10°C° 0.2 mm 8 mps 746 mmHg 82%
    09:00 +10°C° 0.2 mm 8 mps 746 mmHg 82%
    10:00 +10°C° 0 mm 8 mps 747 mmHg 78%
    11:00 +10°C° 0 mm 7 mps 747 mmHg 75%
    12:00 +11°C° 0 mm 6 mps 747 mmHg 72%
    13:00 +10°C° 0.1 mm 6 mps 747 mmHg 74%
    14:00 +10°C° 0.1 mm 5 mps 747 mmHg 76%
    15:00 +10°C° 0.1 mm 4 mps 747 mmHg 78%
    16:00 +10°C° 0.3 mm 4 mps 748 mmHg 80%
    17:00 +9°C° 0.3 mm 3 mps 748 mmHg 82%
    18:00 +9°C° 0.3 mm 2 mps 748 mmHg 85%
    19:00 +9°C° 0.4 mm 2 mps 748 mmHg 86%
    20:00 +9°C° 0.4 mm 2 mps 748 mmHg 88%
    21:00 +9°C° 0.4 mm 1 mps 748 mmHg 89%
    22:00 +8°C° 1.7 mm 3 mps 747 mmHg 90%
    23:00 +7°C° 1.7 mm 4 mps 747 mmHg 91%
    Show more